TIME,DELAY(SENSOR),PRES,OXYGEN,RAWTEMP,T(OPTODE),TCPHASE,FLUOR,BETA(BETA700),BETA(BETA412),BETA(BETA440),CDOM,C(CSC),ED(ED412.40),ED(ED444.00),ED(ED489.70),ED(ED554.30),LU(LU411.80),LU(LU443.40),LU(LU489.60),LU(LU554.10),COMP,TILTX,TILTY,CHECK
1383018182,5809,805.3400268554688000,48.1419410705566400,654.8107299804688000,4.7986640930175780,53.7411994934082000,52,97,85,79,78,15244,2147753609,2147422354,2148011419,2147872027,2147637248,2147059282,2148261056,2147199661,3482,3,13,42473
1383021778,5808,867.4500122070312000,53.3768692016601560,661.3145751953125000,4.5846819877624510,53.0970382690429700,52,101,83,80,77,15242,2147754048,2147420928,2148013065,2147875547,2147637485,2147049444,2148256950,2147196900,2787,4,13,41401
1383025378,5810,880.6400146484375000,54.4882888793945300,663.2089233398438000,4.5222740173339840,52.9724693298339840,52,99,87,77,78,15241,2147751753,2147422372,2148011721,2147876022,2147640768,2147051081,2148259565,2147199040,380,4,13,51961
1383028978,5807,912.1199951171875000,55.1074409484863300,663.7819213867188000,4.5033860206604000,52.8997611999511700,52,96,86,79,77,15246,2147753965,2147421485,2148013952,2147875090,2147640905,2147051949,2148260708,2147196013,61,4,13,16049
1383032578,5810,920.1500244140625000,55.0492401123046900,663.7501220703125000,4.5044350624084470,52.9034385681152340,52,95,84,78,78,15242,2147753737,2147422994,2148011620,2147873993,2147638473,2147051419,2148267794,2147198601,54,4,13,51957
1383036178,5806,921.3099975585938000,54.7911605834960940,663.7130126953125000,4.5056591033935550,52.9410514831543000,52,106,86,78,79,15242,2147754477,2147422729,2148013476,2147874697,2147639689,2147058368,2148265627,2147201901,397,4,13,36846
1383039778,5807,945.0999755859375000,55.4123382568359400,666.8417968750000000,4.4024701118469240,52.8983612060546900,53,97,86,78,78,15242,2147753435,2147422921,2148012598,2147872027,2147636864,2147048868,2148263140,2147198098,140,4,13,65505
1383043378,5810,944.5999755859375000,56.0503692626953100,667.6442871093750000,4.3759841918945310,52.8262596130371100,52,96,81,78,77,15233,2147753426,2147423067,2148013284,2147873417,2147639817,2147054875,2148259776,2147196452,3357,4,13,29540
1383046978,5808,948.9099731445312000,56.1093788146972660,668.1975097656250000,4.3577208518981930,52.8223686218261700,52,96,84,79,78,15234,2147757714,2147421769,2148009133,2147874121,2147639844,2147056548,2148263744,2147196516,3596,4,13,28050
1383050578,5808,969.8300170898438000,57.3652915954589840,670.8892822265625000,4.2688179016113280,52.6944389343261700,52,97,84,77,79,15233,2147753334,2147421293,2148013174,2147876406,2147643026,2147048045,2148260013,2147196260,3293,4,13,15685
1383054178,5811,968.1799926757812000,57.6357917785644500,673.0510864257812000,4.1973528861999510,52.6864204406738300,52,95,85,78,77,15227,2147753700,2147421769,2148014381,2147873161,2147643392,2147052964,2148264694,2147199954,3579,4,13,23767
1383057778,5808,970.2600097656250000,57.5482406616210940,672.6367187500000000,4.2110600471496580,52.6942405700683600,52,96,83,79,78,15229,2147755812,2147423954,2148012269,2147873746,2147640603,2147056173,2148261915,2147195840,59,4,13,48073
1383061378,5808,973.7700195312500000,57.3596115112304700,672.6591796875000000,4.2103118896484375,52.7198486328125000,52,96,81,78,79,15229,2147755382,2147421705,2148016694,2147873435,2147641618,2147049435,2148264338,2147198390,3582,4,13,21333
1383064978,5809,983.2199707031250000,57.4804687500000000,670.7852172851562000,4.2722549438476560,52.6809196472168000,52,96,79,78,79,15229,2147755181,2147422180,2148013403,2147873453,2147640301,2147050075,2148263899,2147198555,110,4,13,38830
1383068578,5808,979.5200195312500000,56.6915092468261700,670.1223754882812000,4.2941551208496090,52.7690696716308600,52,98,88,78,77,15225,2147753088,2147416914,2148014628,2147874386,2147640182,2147054646,2148266642,2147196790,3472,4,13,36204
1383072178,5807,987.1699829101562000,57.2048683166503900,669.9152221679688000,4.3009991645812990,52.7051811218261700,52,106,88,78,79,15224,2147754313,2147424722,2148006125,2147873828,2147641993,2147053385,2148269129,2147196068,86,4,13,18209
1383075778,5809,980.4400024414062000,56.6514396667480500,669.9307861328125000,4.3004841804504395,52.7741889953613300,51,98,85,78,78,15227,2147749970,2147424502,2148011428,2147874304,2147642340,2147051474,2148264521,2147195904,2699,4,13,41457
1383079378,5807,977.9299926757812000,56.9877281188964840,670.9140014648438000,4.2680001258850100,52.7406196594238300,52,99,85,78,78,15224,2147753115,2147423844,2148010642,2147875501,2147643648,2147049088,2148264402,2147192347,211,4,13,26830
1383082978,5808,976.2999877929688000,57.4051208496093750,672.0347290039062000,4.2309589385986330,52.7040596008300800,52,97,85,78,78,15226,2147755282,2147422774,2148012352,2147871268,2147643693,2147051712,2148265472,2147200539,201,4,13,16426
1383086578,5811,976.7899780273438000,57.2095718383789060,672.5421752929688000,4.2141819000244140,52.7377014160156250,52,98,83,77,79,15226,2147755803,2147420937,2148010340,2147871725,2147642249,2147048173,2148265883,2147196754,40,4,13,35544
1383090178,5808,975.5399780273438000,57.0311088562011700,671.9779052734375000,4.2328381538391110,52.7505989074707000,51,97,79,78,79,15227,2147754496,2147421723,2148013184,2147872530,2147640868,2147048822,2148262756,2147200640,249,4,13,41790
1383093778,5807,986.7999877929688000,57.5510482788085940,671.8164062500000000,4.2381758689880370,52.6801490783691400,53,96,83,78,78,15226,2147753088,2147425545,2148013184,2147873334,2147639113,2147048832,2148260224,2147200201,3098,4,13,17462
1383097378,5810,977.2600097656250000,56.9696502685546900,671.5402832031250000,4.2473030090332030,52.7541313171386700,52,98,81,78,78,15225,2147754715,2147423725,2148010075,2147874212,2147636928,2147048905,2148262518,2147199552,316,4,13,38260
1383100978,5809,978.0900268554688000,57.0699005126953100,672.0842895507812000,4.2293210029602050,52.7511711120605500,52,99,86,78,78,15222,2147755218,2147424045,2148014244,2147875904,2147641545,2147053074,2148260004,2147194084,144,4,13,64259
1383104578,5809,973.8400268554688000,57.8315315246582000,674.0991821289062000,4.1626892089843750,52.6744194030761700,52,96,86,78,79,15224,2147755648,2147424749,2148013531,2147874185,2147639552,2147050825,2148258450,2147195346,3510,4,13,19386
1383108178,5807,979.3499755859375000,57.8639602661132800,673.9157714843750000,4.1687550544738770,52.6714515686035160,52,96,85,78,77,15225,2147751817,2147426816,2148012480,2147873133,2147641051,2147053522,2148264448,2147195364,2760,4,13,17657
1383111778,5808,983.4299926757812000,57.5251197814941400,671.9511718750000000,4.2337188720703125,52.6856803894043000,51,97,86,77,78,15159,2147753234,2147422400,2148012772,2147875044,2147639808,2147056694,2148263945,2147195300,604,4,13,65142
1383115378,5810,990.3499755859375000,56.8031997680664060,671.1702270507812000,4.2595348358154300,52.7713890075683600,52,96,81,79,78,15219,2147750893,2147424118,2148014134,2147875520,2147639981,2147049792,2148270198,2147197641,3518,3,13,42531
1383118978,5810,984.5000000000000000,56.5418510437011700,670.6533813476562000,4.2766089439392090,52.7954292297363300,53,98,85,77,78,15222,2147753042,2147424365,2148013238,2147872338,2147640512,2147051748,2148265069,2147194450,3452,4,13,18631
1383122578,5811,986.9899902343750000,56.4173889160156250,670.8350219726562000,4.2706089019775390,52.8181190490722660,52,97,83,78,79,15220,2147749421,2147422994,2148014290,2147872740,2147640566,2147046838,2148260489,2147198829,205,4,13,56389
1383126178,5809,985.2500000000000000,55.8852386474609400,670.7244873046875000,4.2742609977722170,52.8885993957519500,53,97,81,78,78,15217,2147754230,2147424411,2148010989,2147870336,2147641910,2147048429,2148263296,2147193792,71,4,13,50596
1383129778,5808,985.7899780273438000,57.0598411560058600,671.3764038085938000,4.2527198791503910,52.7427215576171900,52,96,83,78,79,15218,2147753133,2147425462,2148011172,2147871021,2147640905,2147053750,2148261394,2147193170,3439,4,13,28432
1383133378,5810,983.5100097656250000,56.4764404296875000,671.1232910156250000,4.2610840797424320,52.8158187866210940,52,96,83,78,79,15218,2147750866,2147421787,2148013366,2147871597,2147642304,2147052836,2148267154,2147198153,3405,4,13,6551
1383136978,5805,983.8499755859375000,56.8186607360839840,672.4091796875000000,4.2185797691345215,52.7833404541015600,52,96,85,77,78,15220,2147755904,2147423689,2148012726,2147874468,2147639972,2147055625,2148263405,2147195657,3336,4,13,14583
1383140578,5809,980.5499877929688000,57.2284393310546900,673.2423706054688000,4.1910309791564940,52.7444915771484400,52,97,85,77,78,15216,2147757339,2147424722,2148013933,2147872566,2147644370,2147056420,2148263058,2147195803,3099,4,13,34835
1383144178,5809,977.6799926757812000,57.0146713256835940,673.3911743164062000,4.1861100196838380,52.7710609436035160,52,98,86,78,80,15219,2147756105,2147421942,2148010331,2147874212,2147643337,2147050203,2148261083,2147195940,3053,4,13,6877
1383147778,5810,975.6300048828125000,57.4426498413085940,673.3925781250000000,4.1860599517822270,52.7140998840332000,53,98,84,78,78,15217,2147754102,2147421741,2148011648,2147873216,2147643547,2147059593,2148262555,2147200164,3404,4,13,25900
1383151378,5808,984.0300292968750000,57.3265495300293000,672.9202270507812000,4.2016849517822270,52.7276306152343750,52,98,88,78,77,15215,2147753755,2147421659,2148013906,2147871661,2147642322,2147052598,2148261046,2147197440,600,4,13,61064
1383154978,5809,990.4899902343750000,57.3476600646972660,671.8162231445312000,4.2381820678710940,52.7071495056152340,53,96,87,78,79,15211,2147750253,2147423058,2148015085,2147872987,2147638921,2147056978,2148261430,2147199314,204,4,13,13864
1383158578,5810,987.9699707031250000,57.0939483642578100,671.5484008789062000,4.2470340728759770,52.7399406433105500,53,96,86,78,77,15216,2147754971,2147422528,2148016932,2147868854,2147642669,2147052233,2148261165,2147198445,3558,4,13,50549
1383162178,5807,984.2999877929688000,56.7826118469238300,671.3767700195312000,4.2527050971984860,52.7748489379882800,52,98,85,79,79,15218,2147751908,2147424356,2148014528,2147874075,2147642788,2147050331,2148261302,2147196672,3230,4,13,18075
1383162955,5807,987.7600097656250000,56.6427497863769500,671.7205200195312000,4.2413439750671390,52.7975196838378900,52,104,84,78,79,15223,2147749924,2147423981,2148012397,2147873517,2147638034,2147050651,2148261046,2147196498,3587,4,13,19773
